Regional Weather Roundup
Issued by NWS

Home | Current Version | Previous Version | Graphics & Text | Print | Product List | Glossary On
Versions: 1 2 3 4 5 6 7 8 9 10 11 12 13 14 15 16 17 18 19 20 21 22 23 24 25 26 27 28 29 30 31 32 33 34 35 36 37 38 39 40 41 42 43 44 45 46 47 48 49 50
000
ASUS43 KDMX 260707
RWRIA

WEATHER ROUNDUP FOR IOWA
NATIONAL WEATHER SERVICE DES MOINES IA
100 AM CST MON JAN 26 2015

NOTE: "FAIR" INDICATES FEW OR NO CLOUDS BELOW 12,000 FEET WITH NO
SIGNIFICANT WEATHER AND/OR OBSTRUCTIONS TO VISIBILITY.

* - THESE STATIONS ARE NOT NWS STATIONS...THUS NOT UNDER NWS
QUALITY CONTROL.  THEY ALSO DO NOT REPORT WEATHER SUCH
AS PRECIPITATION OR FOG.

IAZ001>003-012>014-020>022-031>034-043>046-260800-
   NORTHWEST IOWA

CITY           SKY/WX    TMP DP  RH WIND       PRES   REMARKS
CARROLL *      CLOUDY    32  30  93 S9        29.99F WCI  24
CHEROKEE *     PTCLDY    30  30 100 S6        29.97F WCI  24
DENISON *      CLOUDY    32  32 100 SW8       29.97F WCI  25
LE MARS *      CLEAR     32  32 100 S7        29.97F WCI  26
ORANGE CITY *  CLEAR     32  30  93 SW9       29.95S WCI  24
SHELDON *      PTCLDY    32  32 100 S9        29.94S WCI  24
SIOUX CITY     CLEAR     31  28  89 S7        29.98F WCI  24
SPENCER        MOCLDY    32  29  88 S8        29.95S WCI  25
STORM LAKE *   MOCLDY    30  30 100 SW10      29.97F WCI  21
$$

IAZ055>058-069>071-079>083-090>094-260800-
   SOUTHWEST IOWA

CITY           SKY/WX    TMP DP  RH WIND       PRES   REMARKS
ATLANTIC *     CLOUDY    32  30  93 S6        30.03F WCI  26
AUDUBON *      CLOUDY    30  27  86 S6        30.01F WCI  24
CLARINDA *     MOCLDY    28  27  93 S6        30.08F WCI  22
COUNCIL BLFS * CLEAR     28  28 100 S7        30.03F WCI  21
CRESTON *      CLOUDY    30  28  93 SW5       30.03F WCI  25
HARLAN  *      MOCLDY    28  28 100 SW6       30.06F WCI  22
LAMONI         CLOUDY    30  26  85 SW3       30.04F
RED OAK *      CLOUDY    27  27 100 SW5       30.05F WCI  21
SHENANDOAH *   PTCLDY    25  25 100 SW5       30.07F WCI  19
$$

IAZ047>049-059>061-072>074-084-260800-
   CENTRAL IOWA

CITY           SKY/WX    TMP DP  RH WIND       PRES   REMARKS
AMES           CLOUDY    29  24  82 CALM      30.02F
ANKENY *       CLOUDY    30  27  86 CALM      30.03F
CHARITON *     CLOUDY    30  27  86 CALM      30.04F
DES MOINES     CLOUDY    32  24  72 S5        30.03F WCI  27
GRINNELL*      CLOUDY    30  27  86 CALM      30.04S
KNOXVILLE *    CLOUDY    30  25  80 CALM      30.03F
MARSHALLTOWN   CLOUDY    29  25  85 W5        30.01F WCI  24
PELLA *        MOCLDY    30  27  86 CALM      30.06S
PERRY *          N/A     32  30  93 SW8       30.02F WCI  25
$$

IAZ004>006-015-016-023>025-035-036-260800-
   NORTH CENTRAL IOWA

CITY           SKY/WX    TMP DP  RH WIND       PRES   REMARKS
ALGONA *       CLOUDY    30  28  93 S10       29.98F WCI  21
CLARION *      CLOUDY    28  27  93 S6        30.00S WCI  22
ESTHERVILLE    CLOUDY    30  28  92 S10       29.94F WCI  21
FORT DODGE *   CLOUDY    28  23  80 S6        30.00F WCI  22
MASON CITY     CLOUDY    26  22  84 S5        30.00F WCI  20
FOREST CITY *  CLOUDY    28  27  93 S6        29.97F WCI  22
IOWA FALLS *     N/A     25  21  86 S5        30.01F WCI  19
$$

IAZ007>011-017>019-026>030-037>042-050>054-066-260800-
   NORTHEAST IOWA

CITY           SKY/WX    TMP DP  RH WIND       PRES   REMARKS
CEDAR RAPIDS   CLOUDY    21  15  78 E5        30.04F WCI  15
CHARLES CITY * CLOUDY    27  23  86 CALM      30.00F
CLINTON *      PTCLDY    14   9  79 N7        30.08R WCI   4
DECORAH *      CLOUDY    23  16  74 S8        29.99F WCI  14
DUBUQUE        PTCLDY    12   7  80 CALM      30.03S
MONTICELLO *   CLOUDY    18  16  93 CALM      30.06S
OELWEIN *      CLOUDY    23  18  80 S10       30.01F WCI  12
WATERLOO       CLOUDY    28  25  88 S3        30.01F
$$

IAZ064-065-067-068-078-260800-
   EAST CENTRAL IOWA

CITY           SKY/WX    TMP DP  RH WIND       PRES   REMARKS
DAVENPORT      PTCLDY    14   9  80 NW8       30.06R WCI   3
IOWA CITY      CLOUDY    21  17  84 CALM      30.08F
MT. PLEASANT * CLOUDY    23  18  80 N3        30.06F
MUSCATINE *    CLEAR     21  16  79 NW5       30.08F WCI  15
QUAD CITIES    MOCLDY    19  12  74 NW5       30.06R WCI  12
$$

IAZ062-063-075>077-085>089-095>099-260800-
   SOUTHEAST IOWA

CITY           SKY/WX    TMP DP  RH WIND       PRES   REMARKS
BURLINGTON     PTCLDY    23  18  81 N6        30.06R WCI  16
FAIRFIELD *    CLOUDY    25  18  74 E3        30.06S
FORT MADISON * CLOUDY    25  21  86 N5        30.07S WCI  19
KEOKUK *       CLOUDY    27  21  80 N6        30.05F WCI  20
OSKALOOSA *    CLOUDY    30  27  86 CALM      30.05S
CENTERVILLE *  CLOUDY    32  30  93 W7        30.05F WCI  26
OTTUMWA        CLOUDY    29  26  89 CALM      30.04F
WASHINGTON *   CLOUDY    23  21  93 CALM      30.06S
$$

ABBREVIATIONS USED IN REMARKS
   TC - TEMPERATURES IN CELSIUS
  WCI - WIND CHILL INDEX
   HX - HEAT INDEX
  VSB - VISIBILITY
$$




USA.gov is the U.S. government's official web portal to all federal, state and local government web resources and services.